Location: LDNL
(36.4545°S, 141.6685°E)
Time: 13:10:47
(UTC+11:00)

Courier 1B Rocket - Pass Details

Date: 07 February 2023
Orbit: 920 x 1202 km, 28.2° (Epoch: 25 March)

Event Time Altitude Azimuth Distance (km) Brightness Sun altitude
Rises 09:41:55 0° 274° (W) 4,108 7.7 32.0°
Reaches altitude 10° 09:45:22 10° 286° (WNW) 3,140 7.3 32.7°
Maximum altitude 09:51:24 25° 337° (NNW) 2,207 6.9 33.9°
Drops below altitude 10° 09:57:18 10° 28° (NNE) 3,053 8.1 35.1°
Sets 10:00:37 0° 40° (NE) 3,971 8.8 35.7°
